User: anonymous   Login
Location: Columbia
(38.9520°N, 92.3340°W)
Time: 23:27:39
(UTC-05:00)
Language:

CZ-2C R/B - Orbit

View from above orbital plane
View from above orbital plane
View from above satellite
View from above satellite

Ground track
Ground track

The orbit data is extracted from the following two-line orbital elements,

1 28480U 04046B   15088.87622009  .00000370  00000-0  15536-3 0  9995
2 28480 098.1266 228.4898 0143547 097.1364 054.4813 14.25475942538780
Epoch (UTC): 29 March 2015 21:01:45
Eccentricity: 0.0143547
inclination: 98.1266°
perigee height: 704 km
apogee height: 910 km
right ascension of ascending node: 228.4898°
argument of perigee: 97.1364°
revolutions per day: 14.25475942
mean anomaly at epoch: 54.4813°
orbit number at epoch: 53878

The dashed part of the orbit path shows where the satellite is in the earth's shadow,  

DLR